Vorticity
4 6 4 3 29 56 9 24 15 9 19 12 -0 7 3 -1 1 8 8 4 4 4 4 9 0 9 7 9 11 4 20 33 11 21 -18 8 12 12 26 21 18 9 10 16
11 7 5 6 24 39 7 15 23 8 4 7 11 7 8 8 5 4 5 6 6 8 5 8 9 7 4 7 5 5 10 17 3 8 13 3 15 6 -2 9 25 27 16 12
6 7 5 2 28 38 14 15 33 13 7 16 -1 9 6 14 9 4 4 8 9 7 4 5 9 11 12 9 9 7 8 3 13 8 0 7 11 3 14 4 12 -12 -4 2
-0 8 -1 1 18 51 5 20 27 15 8 9 12 9 5 5 5 5 5 5 5 2 5 6 12 14 15 14 12 15 9 6 7 7 7 8 7 1 9 5 5 8 14 23
3 8 8 9 20 43 1 5 22 16 10 6 6 4 8 8 7 7 9 8 6 4 10 10 9 10 12 12 9 7 11 17 12 6 10 9 6 7 8 2 4 -0 -5 2
9 7 6 13 6 36 22 18 27 24 17 8 8 5 8 7 7 7 5 5 6 8 14 17 17 13 16 11 4 7 10 8 7 18 11 9 14 14 10 9 8 13 6 13
11 9 4 16 3 28 26 22 26 23 3 28 5 10 7 8 12 11 6 6 2 5 5 10 22 16 10 4 10 11 12 11 10 14 10 19 18 18 17 12 10 13 12 13
7 8 7 11 10 21 31 34 16 16 30 -21 31 3 9 6 3 3 3 5 5 3 5 8 10 22 11 3 9 11 13 11 12 17 25 8 17 15 17 18 13 13 13 13
7 17 7 11 15 21 24 20 25 17 20 32 9 13 5 7 7 8 6 6 6 6 1 3 8 7 8 13 13 11 12 1 2 9 10 13 11 11 14 12 12 7 6 9
-2 14 13 15 22 22 17 13 25 23 16 28 -0 39 -1 5 6 4 5 5 4 2 5 6 6 6 10 8 9 10 11 12 8 6 14 14 8 9 9 14 15 18 17 16
10 15 9 14 25 19 10 15 20 27 22 15 30 -3 40 1 1 4 7 4 8 12 9 8 10 5 4 6 8 7 7 10 11 10 6 7 9 8 3 7 12 7 6 9
5 20 20 13 30 18 7 14 14 23 26 23 11 27 6 37 2 5 -3 2 5 9 11 9 10 10 9 8 1 5 9 7 8 8 9 10 9 7 9 7 5 8 10 9
14 23 16 12 30 18 7 12 17 25 20 27 18 23 17 12 22 31 2 5 5 10 7 7 8 8 10 10 9 9 1 3 6 10 10 9 5 7 7 7 6 7 7 6
14 15 19 15 38 18 10 10 21 22 23 28 27 27 13 7 18 21 26 -0 2 4 -0 1 2 5 6 8 10 7 8 7 3 2 5 9 13 13 16 16 13 9 7 5
11 11 23 10 38 13 9 11 25 14 23 21 18 24 10 4 14 23 17 20 12 10 9 9 12 13 9 7 9 9 10 8 8 11 2 2 4 3 3 5 7 10 13 14
13 0 24 14 44 16 5 15 21 25 14 24 22 23 18 16 15 21 22 17 18 18 23 16 9 5 19 15 12 7 12 10 9 3 7 9 5 1 2 4 3 4 3 3
7 24 20 16 19 45 7 8 20 20 18 12 16 15 18 26 30 31 27 11 1 4 5 6 5 8 17 13 11 7 16 12 11 11 8 4 9 9 9 6 6 4 4 3
11 4 10 9 15 56 24 2 26 16 9 16 -5 22 -9 7 3 1 2 3 4 3 4 8 11 21 6 41 47 47 21 15 17 8 9 7 5 7 8 12 14 16 17 13
-4 0 4 -7 -7 22 55 13 13 17 12 7 12 -9 10 11 7 3 5 6 2 5 6 8 9 2 -23 26 72 74 69 34 31 27 12 9 12 8 9 9 8 8 9 13
-3 6 8 12 6 7 11 67 29 16 13 10 4 10 15 3 14 16 3 9 11 9 7 18 -2 8 10 30 61 99 41 30 18 -17 35 24 15 10 8 7 4 4 6 6
5 -0 3 1 8 6 0 -15 5 62 26 15 12 10 7 15 10 11 21 4 8 16 7 12 14 -4 12 15 17 8 3 -3 13 3 22 22 24 6 7 3 4 2 8 11
3 3 5 -1 -3 12 10 9 7 -8 17 57 22 18 19 6 9 10 10 11 13 12 7 10 2 13 8 21 21 22 15 19 12 19 7 34 16 3 6 6 6 6 9 10
2 4 5 -2 -2 4 5 1 11 3 -1 2 43 37 10 30 14 9 11 11 11 7 6 6 8 13 11 8 23 17 7 40 8 23 24 29 14 -0 8 13 16 14 11 9
3 5 1 2 11 4 4 8 2 6 8 -5 -2 34 32 26 18 22 11 10 8 10 5 6 10 14 20 4 2 6 13 18 10 15 13 13 14 13 11 8 6 7 10 12
4 3 3 4 2 8 2 4 6 2 12 -2 4 7 20 37 20 17 32 16 16 19 9 1 -1 10 14 10 5 6 10 11 8 6 3 7 8 9 11 12 14 13 15 19
5 5 2 5 7 4 5 7 3 8 7 5 2 16 12 3 37 16 17 10 3 4 10 15 -5 3 6 11 18 12 12 12 15 16 13 5 7 14 14 9 9 12 20 14
4 2 7 6 5 8 7 11 1 11 6 5 10 10 6 4 -4 34 16 18 0 21 1 -2 2 6 9 6 -7 23 26 20 14 17 18 10 15 11 11 10 13 10 5 21
Height
5680 5670 5658 5645 5636 5629 5624 5622 5624 5624 5624 5625 5626 5625 5625 5626 5626 5627 5629 5629 5629 5629 5630 5631 5633 5634 5635 5637 5638 5641 5643 5645 5649 5653 5656 5659 5660 5663 5662 5664 5668 5671 5674 5680
5678 5665 5653 5641 5632 5626 5623 5620 5619 5621 5620 5621 5622 5623 5623 5624 5625 5626 5627 5628 5629 5629 5630 5632 5632 5633 5635 5637 5639 5641 5643 5645 5648 5650 5654 5656 5657 5660 5661 5662 5664 5666 5669 5673
5673 5661 5649 5637 5628 5623 5619 5617 5615 5617 5617 5618 5620 5620 5621 5622 5623 5625 5626 5627 5628 5628 5628 5630 5631 5632 5633 5635 5637 5638 5641 5643 5646 5649 5651 5652 5654 5656 5657 5659 5661 5664 5665 5666
5670 5657 5645 5634 5626 5619 5617 5612 5610 5611 5613 5614 5616 5617 5618 5619 5621 5622 5624 5625 5625 5626 5627 5628 5628 5630 5631 5632 5633 5636 5638 5639 5641 5643 5645 5647 5649 5651 5653 5656 5657 5658 5662 5662
5667 5654 5642 5631 5621 5615 5613 5609 5606 5605 5607 5609 5611 5613 5615 5616 5617 5619 5621 5622 5623 5624 5625 5625 5626 5627 5628 5630 5631 5632 5633 5636 5637 5639 5640 5642 5643 5646 5649 5653 5654 5656 5656 5657
5662 5650 5639 5627 5616 5611 5606 5604 5601 5600 5601 5603 5606 5610 5611 5613 5614 5616 5617 5619 5620 5621 5621 5621 5622 5623 5625 5626 5628 5630 5631 5632 5633 5635 5636 5637 5639 5642 5644 5646 5648 5650 5650 5655
5659 5647 5635 5623 5612 5606 5603 5598 5596 5595 5597 5598 5602 5604 5607 5609 5611 5613 5615 5616 5618 5619 5619 5619 5619 5620 5622 5624 5626 5627 5628 5629 5630 5632 5631 5633 5635 5637 5639 5641 5642 5644 5647 5648
5655 5642 5629 5619 5607 5601 5596 5591 5591 5590 5590 5591 5594 5597 5600 5603 5607 5610 5611 5614 5615 5616 5616 5617 5618 5618 5620 5622 5622 5623 5625 5626 5626 5627 5628 5631 5631 5632 5635 5637 5639 5641 5643 5645
5651 5638 5624 5614 5605 5597 5592 5588 5585 5584 5584 5585 5588 5590 5594 5598 5601 5604 5607 5609 5610 5612 5613 5615 5615 5616 5618 5619 5620 5620 5621 5623 5624 5625 5626 5627 5629 5630 5632 5634 5637 5639 5641 5642
5646 5634 5621 5609 5600 5593 5589 5584 5580 5578 5578 5579 5582 5584 5588 5591 5595 5599 5602 5604 5606 5607 5610 5611 5612 5613 5615 5616 5616 5618 5618 5620 5622 5622 5624 5626 5626 5628 5630 5633 5637 5635 5637 5639
5641 5631 5617 5605 5597 5590 5585 5580 5576 5573 5573 5574 5576 5579 5581 5584 5588 5593 5598 5599 5601 5603 5604 5606 5607 5609 5610 5611 5612 5613 5615 5616 5617 5619 5620 5623 5624 5626 5628 5629 5629 5631 5633 5634
5636 5626 5613 5601 5591 5586 5582 5577 5571 5567 5565 5567 5568 5571 5574 5578 5581 5585 5590 5593 5595 5598 5600 5602 5602 5604 5605 5607 5608 5609 5611 5613 5614 5616 5617 5618 5619 5621 5623 5625 5626 5628 5629 5631
5630 5621 5609 5596 5587 5581 5577 5572 5564 5560 5559 5560 5561 5563 5568 5571 5574 5578 5582 5587 5590 5593 5593 5595 5596 5599 5601 5602 5604 5603 5606 5607 5609 5611 5612 5613 5615 5617 5618 5620 5621 5623 5625 5627
5623 5616 5606 5592 5583 5579 5574 5569 5563 5560 5557 5556 5557 5558 5562 5566 5569 5572 5575 5579 5583 5586 5588 5589 5591 5592 5593 5595 5596 5595 5600 5600 5604 5605 5606 5608 5609 5611 5613 5615 5616 5618 5620 5622
5616 5610 5603 5592 5581 5575 5571 5567 5562 5559 5557 5556 5555 5556 5558 5562 5564 5566 5570 5574 5577 5579 5582 5583 5584 5583 5583 5584 5586 5587 5591 5594 5594 5598 5595 5600 5603 5606 5607 5609 5611 5612 5613 5615
5614 5606 5599 5591 5580 5574 5570 5565 5561 5558 5556 5556 5556 5556 5556 5558 5560 5562 5565 5569 5572 5574 5575 5577 5577 5575 5574 5574 5575 5576 5579 5580 5583 5585 5586 5591 5594 5597 5600 5602 5604 5606 5608 5609
5612 5607 5599 5589 5580 5573 5570 5568 5563 5562 5560 5560 5559 5559 5558 5558 5559 5561 5563 5565 5568 5571 5573 5572 5571 5568 5564 5561 5561 5560 5560 5564 5569 5575 5576 5580 5584 5588 5591 5594 5596 5598 5599 5601
5611 5607 5599 5590 5580 5574 5571 5568 5566 5565 5565 5563 5562 5561 5561 5560 5560 5562 5563 5564 5566 5566 5566 5565 5563 5559 5552 5544 5536 5535 5537 5543 5551 5559 5566 5570 5574 5578 5582 5586 5588 5589 5591 5592
5609 5605 5600 5594 5584 5577 5572 5569 5567 5566 5568 5565 5564 5562 5562 5562 5561 5561 5562 5562 5562 5562 5561 5558 5555 5547 5538 5526 5511 5499 5507 5518 5534 5544 5553 5558 5564 5569 5574 5577 5580 5582 5583 5584
5606 5602 5599 5593 5589 5583 5579 5571 5569 5567 5565 5563 5562 5561 5560 5560 5559 5559 5560 5558 5558 5557 5556 5552 5547 5542 5537 5526 5510 5499 5512 5521 5527 5535 5542 5549 5555 5560 5565 5569 5572 5575 5576 5577
5602 5599 5594 5589 5586 5584 5580 5577 5573 5568 5564 5562 5560 5559 5557 5556 5555 5554 5554 5554 5553 5552 5551 5547 5542 5539 5536 5532 5528 5525 5523 5522 5528 5533 5537 5542 5547 5553 5558 5562 5565 5567 5569 5570
5596 5594 5590 5586 5581 5579 5578 5576 5573 5569 5565 5560 5557 5555 5553 5552 5550 5549 5550 5549 5548 5548 5546 5543 5541 5539 5536 5532 5529 5528 5528 5530 5532 5534 5536 5538 5542 5548 5552 5555 5558 5560 5561 5562
5589 5588 5586 5583 5578 5573 5572 5571 5570 5566 5563 5559 5554 5549 5548 5547 5546 5545 5544 5545 5544 5544 5543 5541 5540 5538 5535 5533 5530 5528 5526 5528 5530 5533 5536 5536 5539 5543 5546 5548 5551 5552 5553 5554
5581 5581 5579 5577 5571 5568 5567 5566 5564 5562 5558 5555 5552 5546 5541 5540 5540 5539 5539 5540 5540 5539 5540 5539 5537 5535 5533 5532 5531 5530 5529 5530 5530 5531 5533 5534 5536 5539 5541 5543 5545 5546 5546 5546
5572 5572 5571 5568 5566 5562 5560 5559 5557 5555 5552 5549 5547 5544 5539 5535 5535 5534 5534 5535 5535 5534 5531 5531 5531 5530 5529 5529 5528 5528 5527 5527 5528 5528 5529 5531 5533 5535 5536 5537 5538 5538 5538 5538
5563 5562 5560 5559 5556 5555 5553 5551 5549 5547 5545 5542 5539 5537 5534 5531 5530 5529 5529 5530 5527 5523 5525 5524 5524 5525 5525 5525 5524 5523 5523 5524 5524 5524 5526 5527 5529 5529 5530 5531 5531 5531 5531 5530
5554 5554 5551 5549 5546 5544 5543 5541 5540 5538 5535 5533 5531 5529 5527 5524 5522 5521 5521 5519 5517 5516 5515 5514 5517 5518 5519 5520 5519 5519 5519 5520 5520 5520 5522 5523 5524 5525 5525 5526 5527 5527 5527 5527